Scappoose, OR

1:22 AM PDT on July 23, 2017 (GMT -0700)
Scappoose Industrial

Weather History for KSPB - August, 2013

Change the Weather History Date:

Thursday, August 29, 2013

  Actual Average Record
Temperature  
Mean Temperature 70 °F -  
Max Temperature 78 °F - 96 °F (2007)
Min Temperature 63 °F - 42 °F (2010)
Degree Days  
Heating Degree Days 0    
Month to date heating degree days 6  
Since 1 June heating degree days 126  
Since 1 July heating degree days 24  
Cooling Degree Days 6    
Month to date cooling degree days 128  
Year to date cooling degree days 314  
Since 1 June cooling degree days 306  
Growing Degree Days 20 (Base 50)    
Moisture  
Dew Point 64 °F    
Average Humidity 79    
Maximum Humidity 93    
Minimum Humidity 64    
Precipitation  
Precipitation 0.33 in - 0.53 in (2005)
Month to date precipitation 0.65  
Year to date precipitation 14.54  
Sea Level Pressure  
Sea Level Pressure 29.93 in    
Wind  
Wind Speed 4 mph (South)    
Max Wind Speed 14 mph    
Max Gust Speed 20 mph    
Visibility 10 miles    
Events Rain , Thunderstorm    
T = Trace of Precipitation, MM = Missing Value Source: NWS Daily Summary

Daily Weather History Graph

Daily Weather History Graph

Search for Another Location

Airport or City:

Trip Planner

Search our weather history database for the weather conditions in past years. The results will help you decide how hot, cold, wet, or windy it might be!

Date:

Astronomy

Aug. 29, 2013 Rise Set
Actual Time 6:29 AM PDT 7:54 PM PDT
Civil Twilight 5:58 AM PDT 8:25 PM PDT
Nautical Twilight 5:20 AM PDT 9:02 PM PDT
Astronomical Twilight 4:40 AM PDT 9:42 PM PDT
Moon 12:15 AM PDT (8/29) 3:37 PM PDT (8/29)
Length of Visible Light 14h 27m
Length of Day
13h 25m
Last Quarter, 37% of the Moon is Illuminated
Aug 29
Last Quarter
Sep 5
New
Sep 12
First Quarter
Sep 19
Full
Sep 26
Last Quarter

Hourly Weather History & Observations

Time (PDT) Temp. Dew Point Humidity Pressure Visibility Wind Dir Wind Speed Gust Speed Precip Events Conditions
12:53 AM 66.0 °F 62.1 °F 87% 29.91 in 10.0 mi Calm Calm - 0.01 in Rain Light Rain
1:53 AM 66.0 °F 63.0 °F 90% 29.89 in 7.0 mi Calm Calm - 0.05 in Rain Light Rain
2:53 AM 64.9 °F 63.0 °F 93% 29.88 in 10.0 mi Calm Calm - 0.05 in Rain Light Rain
3:53 AM 64.9 °F 63.0 °F 93% 29.86 in 10.0 mi Calm Calm - 0.02 in Rain Light Rain
4:53 AM 64.0 °F 63.0 °F 96% 29.85 in 10.0 mi Calm Calm - 0.00 in Rain Light Rain
5:53 AM 64.0 °F 62.1 °F 93% 29.85 in 10.0 mi West 3.5 mph - 0.00 in   Mostly Cloudy
6:53 AM 64.9 °F 63.0 °F 93% 29.85 in 10.0 mi Calm Calm - 0.01 in Rain Light Rain
7:36 AM 64.4 °F 62.6 °F 94% 29.88 in 10.0 mi Calm Calm - 0.00 in Rain Light Rain
7:53 AM 64.9 °F 63.0 °F 93% 29.88 in 10.0 mi Calm Calm - 0.01 in Rain Light Rain
8:28 AM 66.2 °F 64.4 °F 94% 29.88 in 10.0 mi Calm Calm - 0.00 in   Overcast
8:53 AM 66.0 °F 63.0 °F 90% 29.89 in 10.0 mi Calm Calm - 0.00 in   Mostly Cloudy
8:59 AM 66.2 °F 62.6 °F 88% 29.89 in 10.0 mi Calm Calm - N/A   Mostly Cloudy
9:44 AM 66.2 °F 64.4 °F 94% 29.92 in 10.0 mi South 5.8 mph - 0.00 in   Overcast
9:53 AM 66.9 °F 64.0 °F 90% 29.92 in 10.0 mi SSE 4.6 mph - 0.00 in   Overcast
10:09 AM 68.0 °F 64.4 °F 88% 29.91 in 10.0 mi SE 4.6 mph - N/A   Overcast
10:44 AM 68.0 °F 64.4 °F 88% 29.93 in 10.0 mi SE 4.6 mph - 0.00 in   Overcast
10:53 AM 68.0 °F 64.0 °F 87% 29.94 in 10.0 mi South 4.6 mph - 0.00 in   Overcast
11:20 AM 69.8 °F 64.4 °F 83% 29.93 in 10.0 mi SSE 8.1 mph - N/A   Overcast
11:53 AM 72.0 °F 64.9 °F 78% 29.93 in 10.0 mi SSE 9.2 mph - N/A   Scattered Clouds
12:04 PM 71.6 °F 64.4 °F 78% 29.93 in 10.0 mi SSE 8.1 mph - N/A   Mostly Cloudy
12:53 PM 73.0 °F 63.0 °F 71% 29.93 in 10.0 mi SSE 5.8 mph - N/A   Mostly Cloudy
1:53 PM 73.9 °F 63.0 °F 68% 29.94 in 10.0 mi Variable 6.9 mph - 0.00 in   Overcast
2:53 PM 75.0 °F 62.1 °F 64% 29.94 in 10.0 mi South 8.1 mph - 0.00 in Rain Light Rain
3:32 PM 71.6 °F 64.4 °F 78% 29.96 in 1.8 mi WSW 10.4 mph 16.1 mph 0.12 in Rain Rain
3:44 PM 69.8 °F 66.2 °F 88% 29.96 in 4.0 mi SSW 4.6 mph 17.3 mph 0.19 in Rain Light Rain
3:53 PM 72.0 °F 66.9 °F 84% 29.96 in 10.0 mi SSW 3.5 mph - 0.19 in   Unknown
4:14 PM 73.4 °F 64.4 °F 73% 29.96 in 10.0 mi Calm Calm - N/A   Mostly Cloudy
4:25 PM 71.6 °F 66.2 °F 83% 29.96 in 10.0 mi South 6.9 mph - N/A Thunderstorm Mostly Cloudy
4:41 PM 73.4 °F 64.4 °F 73% 29.96 in 10.0 mi SSE 8.1 mph - N/A   Scattered Clouds
4:53 PM 75.0 °F 64.9 °F 71% 29.96 in 10.0 mi South 8.1 mph - N/A   Scattered Clouds
5:53 PM 77.0 °F 64.0 °F 64% 29.97 in 10.0 mi South 8.1 mph - N/A   Partly Cloudy
6:53 PM 72.0 °F 62.1 °F 71% 29.98 in 10.0 mi South 4.6 mph - 0.00 in   Mostly Cloudy
7:53 PM 70.0 °F 63.0 °F 78% 30.00 in 10.0 mi SSE 5.8 mph - 0.00 in   Overcast
8:53 PM 68.0 °F 63.0 °F 84% 30.01 in 10.0 mi SSE 6.9 mph - N/A   Overcast
9:53 PM 66.9 °F 62.1 °F 84% 30.04 in 10.0 mi SSW 4.6 mph - N/A   Partly Cloudy
10:53 PM 66.0 °F 61.0 °F 84% 30.04 in 10.0 mi SSW 6.9 mph - N/A   Clear
11:53 PM 63.0 °F 60.1 °F 90% 30.06 in 10.0 mi Calm Calm - N/A   Mostly Cloudy